When you browse on this site, cookies collect data to enhance your experience and personalize the content and advertising you see.
Visit our Privacy Policy to learn more. By continuing to use the site, you agree to this use of cookies and data.
  • In United Kingdom
  • List of Countries
  • For 7 days
  • Water Temperature
  • Satellite Maps
  • Weather Map
  • Weather Widgets
  • user-avatar
    Login

    Hourly Weather Prutz

    Today, 20 July, Saturday

    Time Temperature Precipitation Wind Pressure Humidity
    00:00 +12°C° 0 mm 1 mps 635 mmHg 89%
    01:00 +12°C° 0 mm 2 mps 635 mmHg 88%
    02:00 +12°C° 0 mm 2 mps 635 mmHg 88%
    03:00 +12°C° 0 mm 2 mps 635 mmHg 88%
    04:00 +10°C° 0 mm 2 mps 635 mmHg 88%
    05:00 +13°C° 0 mm 2 mps 636 mmHg 85%
    06:00 +15°C° 0 mm 2 mps 636 mmHg 82%
    07:00 +16°C° 0 mm 1 mps 637 mmHg 79%
    08:00 +19°C° 0.1 mm 1 mps 638 mmHg 71%
    09:00 +21°C° 0.1 mm 1 mps 638 mmHg 63%
    10:00 +23°C° 0.1 mm 1 mps 639 mmHg 54%
    11:00 +23°C° 0.6 mm 1 mps 639 mmHg 54%
    12:00 +24°C° 0.6 mm 1 mps 639 mmHg 54%
    13:00 +24°C° 0.6 mm 1 mps 639 mmHg 54%
    14:00 +23°C° 1.2 mm 1 mps 639 mmHg 57%
    15:00 +23°C° 1.2 mm 1 mps 639 mmHg 60%
    16:00 +22°C° 1.2 mm 1 mps 638 mmHg 63%
    17:00 +21°C° 1.3 mm 1 mps 638 mmHg 70%
    18:00 +18°C° 1.3 mm 0 mps 638 mmHg 77%
    19:00 +17°C° 1.3 mm 0 mps 638 mmHg 84%
    20:00 +15°C° 0.2 mm 0 mps 638 mmHg 85%
    21:00 +14°C° 0.2 mm 0 mps 637 mmHg 85%
    22:00 +12°C° 0.2 mm 0 mps 637 mmHg 86%
    23:00 +14°C° 0 mm 1 mps 637 mmHg 85%

    Tomorrow, 21 July, Sunday

    Time Temperature Precipitation Wind Pressure Humidity
    00:00 +14°C° 0 mm 1 mps 638 mmHg 85%
    01:00 +14°C° 0 mm 1 mps 638 mmHg 84%
    02:00 +14°C° 0 mm 1 mps 638 mmHg 84%
    03:00 +14°C° 0 mm 1 mps 638 mmHg 84%
    04:00 +13°C° 0 mm 1 mps 637 mmHg 84%
    05:00 +15°C° 0 mm 1 mps 638 mmHg 81%
    06:00 +16°C° 0 mm 1 mps 638 mmHg 79%
    07:00 +16°C° 0 mm 0 mps 639 mmHg 76%
    08:00 +19°C° 0.4 mm 1 mps 640 mmHg 74%
    09:00 +20°C° 0.4 mm 1 mps 640 mmHg 73%
    10:00 +20°C° 0.4 mm 2 mps 641 mmHg 71%
    11:00 +20°C° 0.8 mm 2 mps 641 mmHg 72%
    12:00 +20°C° 0.8 mm 2 mps 641 mmHg 72%
    13:00 +21°C° 0.8 mm 2 mps 641 mmHg 73%
    14:00 +21°C° 0.7 mm 2 mps 641 mmHg 73%
    15:00 +20°C° 0.7 mm 2 mps 641 mmHg 73%
    16:00 +20°C° 0.7 mm 2 mps 641 mmHg 74%
    17:00 +20°C° 0.2 mm 2 mps 641 mmHg 77%
    18:00 +19°C° 0.2 mm 2 mps 641 mmHg 80%
    19:00 +19°C° 0.2 mm 1 mps 640 mmHg 83%
    20:00 +16°C° 0 mm 1 mps 640 mmHg 86%
    21:00 +13°C° 0 mm 0 mps 640 mmHg 90%
    22:00 +11°C° 0 mm 0 mps 640 mmHg 93%
    23:00 +11°C° 0 mm 0 mps 640 mmHg 92%

    Day after tomorrow, 22 July, Monday

    Time Temperature Precipitation Wind Pressure Humidity
    00:00 +11°C° 0 mm 0 mps 639 mmHg 91%
    01:00 +11°C° 0 mm 0 mps 639 mmHg 90%
    02:00 +11°C° 0 mm 0 mps 639 mmHg 89%
    03:00 +10°C° 0 mm 0 mps 639 mmHg 87%
    04:00 +11°C° 0 mm 1 mps 639 mmHg 86%
    05:00 +12°C° 0 mm 0 mps 640 mmHg 81%
    06:00 +14°C° 0 mm 0 mps 641 mmHg 76%
    07:00 +16°C° 0 mm 0 mps 641 mmHg 71%
    08:00 +18°C° 0 mm 0 mps 642 mmHg 66%
    09:00 +22°C° 0 mm 1 mps 643 mmHg 61%
    10:00 +23°C° 0 mm 1 mps 643 mmHg 55%
    11:00 +24°C° 0 mm 1 mps 643 mmHg 50%
    12:00 +25°C° 0 mm 2 mps 643 mmHg 45%
    13:00 +26°C° 0 mm 2 mps 644 mmHg 40%
    14:00 +26°C° 0 mm 2 mps 643 mmHg 42%
    15:00 +26°C° 0 mm 2 mps 643 mmHg 43%
    16:00 +26°C° 0 mm 3 mps 643 mmHg 45%
    17:00 +24°C° 0 mm 2 mps 643 mmHg 55%
    18:00 +23°C° 0 mm 2 mps 642 mmHg 65%
    19:00 +21°C° 0 mm 2 mps 642 mmHg 75%
    20:00 +20°C° 0 mm 1 mps 641 mmHg 81%
    21:00 +16°C° 0 mm 1 mps 641 mmHg 87%
    22:00 +13°C° 0 mm 0 mps 640 mmHg 93%
    23:00 +13°C° 0 mm 0 mps 640 mmHg 92%

    23 July, Tuesday

    Time Temperature Precipitation Wind Pressure Humidity
    00:00 +13°C° 0 mm 0 mps 640 mmHg 92%
    01:00 +13°C° 0 mm 0 mps 640 mmHg 91%
    02:00 +12°C° 0 mm 0 mps 639 mmHg 90%
    03:00 +12°C° 0 mm 0 mps 639 mmHg 89%
    04:00 +13°C° 0 mm 1 mps 639 mmHg 88%
    05:00 +14°C° 0 mm 0 mps 639 mmHg 80%
    06:00 +16°C° 0 mm 0 mps 640 mmHg 72%
    07:00 +18°C° 0 mm 0 mps 641 mmHg 64%
    08:00 +20°C° 0 mm 0 mps 641 mmHg 55%
    09:00 +24°C° 0 mm 1 mps 642 mmHg 47%
    10:00 +26°C° 0 mm 1 mps 642 mmHg 38%
    11:00 +26°C° 0 mm 1 mps 642 mmHg 36%
    12:00 +27°C° 0 mm 2 mps 642 mmHg 34%
    13:00 +28°C° 0 mm 2 mps 642 mmHg 31%
    14:00 +28°C° 0 mm 2 mps 642 mmHg 33%
    15:00 +28°C° 0 mm 2 mps 642 mmHg 34%
    16:00 +28°C° 0 mm 2 mps 642 mmHg 35%
    17:00 +26°C° 0 mm 2 mps 641 mmHg 47%
    18:00 +25°C° 0 mm 2 mps 641 mmHg 59%
    19:00 +23°C° 0 mm 1 mps 640 mmHg 70%
    20:00 +21°C° 0 mm 1 mps 639 mmHg 77%
    21:00 +19°C° 0 mm 1 mps 639 mmHg 84%
    22:00 +15°C° 0 mm 0 mps 638 mmHg 90%
    23:00 +15°C° 0 mm 1 mps 638 mmHg 90%

    24 July, Wednesday

    Time Temperature Precipitation Wind Pressure Humidity
    00:00 +15°C° 0 mm 1 mps 638 mmHg 89%
    01:00 +15°C° 0 mm 1 mps 638 mmHg 88%
    02:00 +15°C° 0 mm 1 mps 638 mmHg 88%
    03:00 +15°C° 0 mm 1 mps 637 mmHg 88%
    04:00 +14°C° 0 mm 1 mps 637 mmHg 87%
    05:00 +16°C° 0 mm 1 mps 638 mmHg 81%
    06:00 +18°C° 0 mm 0 mps 639 mmHg 75%
    07:00 +20°C° 0 mm 0 mps 640 mmHg 69%
    08:00 +23°C° 0 mm 1 mps 640 mmHg 60%
    09:00 +25°C° 0 mm 1 mps 641 mmHg 51%
    10:00 +27°C° 0 mm 1 mps 641 mmHg 42%
    11:00 +28°C° 0 mm 2 mps 641 mmHg 40%
    12:00 +28°C° 0 mm 2 mps 641 mmHg 37%
    13:00 +29°C° 0 mm 2 mps 641 mmHg 35%
    14:00 +29°C° 0 mm 2 mps 641 mmHg 37%
    15:00 +29°C° 0 mm 2 mps 641 mmHg 39%
    16:00 +29°C° 0 mm 3 mps 641 mmHg 41%
    17:00 +27°C° 0.3 mm 2 mps 640 mmHg 53%
    18:00 +25°C° 0.3 mm 2 mps 640 mmHg 64%
    19:00 +23°C° 0.3 mm 1 mps 639 mmHg 76%
    20:00 +22°C° 0.2 mm 1 mps 639 mmHg 80%
    21:00 +18°C° 0.2 mm 0 mps 639 mmHg 84%
    22:00 +17°C° 0.2 mm 0 mps 638 mmHg 88%
    23:00 +17°C° 0.1 mm 0 mps 638 mmHg 88%

    25 July, Thursday

    Time Temperature Precipitation Wind Pressure Humidity
    00:00 +16°C° 0.1 mm 0 mps 638 mmHg 88%
    01:00 +16°C° 0.1 mm 0 mps 638 mmHg 88%
    02:00 +18°C° 0.2 mm 1 mps 638 mmHg 87%
    03:00 +18°C° 0.2 mm 1 mps 638 mmHg 86%
    04:00 +18°C° 0.2 mm 1 mps 638 mmHg 85%
    05:00 +19°C° 0 mm 1 mps 638 mmHg 82%
    06:00 +21°C° 0 mm 1 mps 639 mmHg 78%
    07:00 +22°C° 0 mm 1 mps 639 mmHg 74%
    08:00 +24°C° 0.1 mm 1 mps 640 mmHg 68%
    09:00 +25°C° 0.1 mm 1 mps 640 mmHg 61%
    10:00 +27°C° 0.1 mm 1 mps 641 mmHg 54%
    11:00 +28°C° 1 mm 1 mps 641 mmHg 53%
    12:00 +28°C° 1 mm 1 mps 641 mmHg 51%
    13:00 +28°C° 1 mm 1 mps 640 mmHg 50%
    14:00 +27°C° 1.6 mm 1 mps 640 mmHg 58%
    15:00 +25°C° 1.6 mm 1 mps 639 mmHg 65%
    16:00 +24°C° 1.6 mm 1 mps 638 mmHg 73%
    17:00 +23°C° 0.8 mm 1 mps 638 mmHg 75%
    18:00 +22°C° 0.8 mm 1 mps 638 mmHg 78%
    19:00 +22°C° 0.8 mm 1 mps 638 mmHg 81%
    20:00 +21°C° 0 mm 1 mps 638 mmHg 81%
    21:00 +20°C° 0 mm 1 mps 637 mmHg 81%
    22:00 +18°C° 0 mm 1 mps 637 mmHg 82%
    23:00 +17°C° 0 mm 2 mps 637 mmHg 82%
    Show more